When you browse on this site, cookies collect data to enhance your experience and personalize the content and advertising you see.
Visit our Privacy Policy to learn more. By continuing to use the site, you agree to this use of cookies and data.

Previsão horária em Abaetetuba

Hoje, 28 Setembro, Segunda-feira

Tempo Temperatura Precipitação Vento Pressão Humidade
00:00 +26°C° 0.5 mm 3 m/s 758 mmHg 94%
01:00 +26°C° 0 mm 3 m/s 757 mmHg 94%
02:00 +25°C° 0 mm 2 m/s 756 mmHg 95%
03:00 +25°C° 0 mm 2 m/s 756 mmHg 97%
04:00 +25°C° 0 mm 2 m/s 756 mmHg 97%
05:00 +25°C° 0 mm 2 m/s 756 mmHg 97%
06:00 +25°C° 0 mm 2 m/s 756 mmHg 97%
07:00 +27°C° 0 mm 2 m/s 757 mmHg 90%
08:00 +28°C° 0 mm 2 m/s 757 mmHg 82%
09:00 +30°C° 0 mm 3 m/s 758 mmHg 71%
10:00 +33°C° 0 mm 3 m/s 758 mmHg 64%
11:00 +35°C° 0 mm 3 m/s 757 mmHg 57%
12:00 +36°C° 0 mm 3 m/s 757 mmHg 50%
13:00 +36°C° 0.2 mm 3 m/s 756 mmHg 52%
14:00 +35°C° 0.2 mm 3 m/s 756 mmHg 53%
15:00 +35°C° 0.2 mm 3 m/s 755 mmHg 55%
16:00 +33°C° 0.4 mm 3 m/s 755 mmHg 63%
17:00 +30°C° 0.4 mm 4 m/s 755 mmHg 72%
18:00 +29°C° 0.4 mm 4 m/s 755 mmHg 80%
19:00 +28°C° 0.1 mm 4 m/s 756 mmHg 82%
20:00 +28°C° 0.1 mm 4 m/s 757 mmHg 83%
21:00 +27°C° 0.1 mm 4 m/s 757 mmHg 85%
22:00 +26°C° 0.1 mm 3 m/s 758 mmHg 87%
23:00 +26°C° 0.1 mm 3 m/s 758 mmHg 89%

Amanhã, 29 Setembro, Terça-feira

Tempo Temperatura Precipitação Vento Pressão Humidade
00:00 +25°C° 0.1 mm 2 m/s 758 mmHg 91%
01:00 +25°C° 0 mm 2 m/s 757 mmHg 91%
02:00 +25°C° 0 mm 3 m/s 757 mmHg 92%
03:00 +25°C° 0 mm 3 m/s 756 mmHg 92%
04:00 +25°C° 0 mm 2 m/s 756 mmHg 93%
05:00 +24°C° 0 mm 2 m/s 756 mmHg 94%
06:00 +24°C° 0 mm 2 m/s 757 mmHg 96%
07:00 +26°C° 0 mm 2 m/s 757 mmHg 86%
08:00 +28°C° 0 mm 3 m/s 758 mmHg 76%
09:00 +30°C° 0 mm 3 m/s 758 mmHg 66%
10:00 +33°C° 0 mm 3 m/s 758 mmHg 59%
11:00 +35°C° 0 mm 3 m/s 758 mmHg 52%
12:00 +37°C° 0 mm 3 m/s 758 mmHg 45%
13:00 +37°C° 0 mm 4 m/s 757 mmHg 46%
14:00 +36°C° 0 mm 4 m/s 756 mmHg 47%
15:00 +36°C° 0 mm 4 m/s 755 mmHg 48%
16:00 +35°C° 0 mm 4 m/s 755 mmHg 53%
17:00 +33°C° 0 mm 4 m/s 755 mmHg 59%
18:00 +30°C° 0 mm 4 m/s 756 mmHg 64%
19:00 +29°C° 0.4 mm 4 m/s 756 mmHg 71%
20:00 +28°C° 0.4 mm 4 m/s 757 mmHg 78%
21:00 +27°C° 0.4 mm 4 m/s 758 mmHg 85%
22:00 +27°C° 0 mm 3 m/s 758 mmHg 86%
23:00 +26°C° 0 mm 3 m/s 758 mmHg 87%

Depois de amanhã, 30 Setembro, Quarta-feira

Tempo Temperatura Precipitação Vento Pressão Humidade
00:00 +26°C° 0 mm 3 m/s 758 mmHg 88%
01:00 +26°C° 0 mm 3 m/s 757 mmHg 90%
02:00 +25°C° 0 mm 3 m/s 757 mmHg 91%
03:00 +25°C° 0 mm 3 m/s 756 mmHg 93%
04:00 +25°C° 0 mm 3 m/s 756 mmHg 94%
05:00 +25°C° 0 mm 3 m/s 756 mmHg 95%
06:00 +25°C° 0 mm 3 m/s 756 mmHg 96%
07:00 +27°C° 0 mm 3 m/s 757 mmHg 87%
08:00 +29°C° 0 mm 3 m/s 758 mmHg 78%
09:00 +30°C° 0 mm 3 m/s 758 mmHg 70%
10:00 +33°C° 0 mm 3 m/s 758 mmHg 63%
11:00 +35°C° 0 mm 3 m/s 758 mmHg 56%
12:00 +37°C° 0 mm 3 m/s 757 mmHg 49%
13:00 +36°C° 0.3 mm 3 m/s 756 mmHg 52%
14:00 +36°C° 0.3 mm 3 m/s 756 mmHg 55%
15:00 +35°C° 0.3 mm 4 m/s 755 mmHg 58%
16:00 +34°C° 0 mm 4 m/s 755 mmHg 62%
17:00 +33°C° 0 mm 4 m/s 755 mmHg 66%
18:00 +30°C° 0 mm 4 m/s 755 mmHg 70%
19:00 +29°C° 0.2 mm 4 m/s 756 mmHg 75%
20:00 +28°C° 0.2 mm 4 m/s 756 mmHg 80%
21:00 +27°C° 0.2 mm 4 m/s 757 mmHg 85%
22:00 +27°C° 0 mm 4 m/s 757 mmHg 86%
23:00 +26°C° 0 mm 3 m/s 757 mmHg 87%

1 Outubro, Quinta-feira

Tempo Temperatura Precipitação Vento Pressão Humidade
00:00 +26°C° 0 mm 3 m/s 757 mmHg 88%
01:00 +25°C° 0 mm 3 m/s 756 mmHg 89%
02:00 +25°C° 0 mm 3 m/s 756 mmHg 90%
03:00 +25°C° 0 mm 3 m/s 755 mmHg 91%
04:00 +24°C° 0 mm 3 m/s 756 mmHg 92%
05:00 +24°C° 0 mm 3 m/s 756 mmHg 93%
06:00 +24°C° 0 mm 3 m/s 756 mmHg 94%
07:00 +26°C° 0 mm 3 m/s 757 mmHg 85%
08:00 +28°C° 0 mm 3 m/s 757 mmHg 76%
09:00 +30°C° 0 mm 3 m/s 758 mmHg 67%
10:00 +33°C° 0 mm 3 m/s 758 mmHg 60%
11:00 +35°C° 0 mm 3 m/s 757 mmHg 52%
12:00 +37°C° 0 mm 3 m/s 757 mmHg 44%
13:00 +37°C° 0 mm 3 m/s 756 mmHg 44%
14:00 +37°C° 0 mm 3 m/s 755 mmHg 44%
15:00 +37°C° 0 mm 3 m/s 754 mmHg 45%
16:00 +35°C° 0 mm 4 m/s 755 mmHg 52%
17:00 +33°C° 0 mm 4 m/s 755 mmHg 60%
18:00 +30°C° 0 mm 4 m/s 755 mmHg 67%
19:00 +30°C° 0.1 mm 4 m/s 755 mmHg 70%
20:00 +29°C° 0.1 mm 4 m/s 756 mmHg 72%
21:00 +28°C° 0.1 mm 4 m/s 756 mmHg 75%
22:00 +28°C° 0 mm 4 m/s 756 mmHg 77%
23:00 +27°C° 0 mm 3 m/s 756 mmHg 79%

2 Outubro, Sexta-feira

Tempo Temperatura Precipitação Vento Pressão Humidade
00:00 +26°C° 0 mm 3 m/s 756 mmHg 82%
01:00 +26°C° 0 mm 3 m/s 756 mmHg 85%
02:00 +25°C° 0 mm 3 m/s 755 mmHg 88%
03:00 +25°C° 0 mm 3 m/s 755 mmHg 91%
04:00 +25°C° 0 mm 3 m/s 755 mmHg 91%
05:00 +24°C° 0 mm 3 m/s 755 mmHg 92%
06:00 +24°C° 0 mm 2 m/s 756 mmHg 93%
07:00 +26°C° 0 mm 3 m/s 756 mmHg 85%
08:00 +28°C° 0 mm 3 m/s 757 mmHg 76%
09:00 +30°C° 0 mm 3 m/s 758 mmHg 68%
10:00 +33°C° 0 mm 3 m/s 758 mmHg 60%
11:00 +35°C° 0 mm 3 m/s 757 mmHg 53%
12:00 +37°C° 0 mm 2 m/s 757 mmHg 45%
13:00 +36°C° 0.1 mm 2 m/s 756 mmHg 48%
14:00 +36°C° 0.1 mm 2 m/s 756 mmHg 50%
15:00 +35°C° 0.1 mm 2 m/s 755 mmHg 53%
16:00 +34°C° 0 mm 2 m/s 755 mmHg 59%
17:00 +31°C° 0 mm 3 m/s 755 mmHg 66%
18:00 +30°C° 0 mm 3 m/s 755 mmHg 72%
19:00 +29°C° 0 mm 3 m/s 755 mmHg 74%
20:00 +29°C° 0 mm 3 m/s 756 mmHg 77%
21:00 +28°C° 0 mm 3 m/s 756 mmHg 79%
22:00 +28°C° 0 mm 3 m/s 756 mmHg 81%
23:00 +27°C° 0 mm 3 m/s 756 mmHg 82%

3 Outubro, Sábado

Tempo Temperatura Precipitação Vento Pressão Humidade
00:00 +27°C° 0 mm 3 m/s 756 mmHg 84%
01:00 +26°C° 0 mm 3 m/s 756 mmHg 87%
02:00 +26°C° 0 mm 3 m/s 756 mmHg 90%
03:00 +25°C° 0 mm 2 m/s 755 mmHg 93%
04:00 +25°C° 0 mm 2 m/s 756 mmHg 94%
05:00 +25°C° 0 mm 2 m/s 756 mmHg 94%
06:00 +25°C° 0 mm 2 m/s 756 mmHg 95%
07:00 +27°C° 0 mm 3 m/s 757 mmHg 86%
08:00 +28°C° 0 mm 3 m/s 758 mmHg 78%
09:00 +30°C° 0 mm 3 m/s 759 mmHg 69%
10:00 +33°C° 0 mm 3 m/s 758 mmHg 62%
11:00 +35°C° 0 mm 3 m/s 758 mmHg 54%
12:00 +37°C° 0 mm 3 m/s 757 mmHg 46%
13:00 +37°C° 0 mm 3 m/s 757 mmHg 46%
14:00 +37°C° 0 mm 3 m/s 756 mmHg 45%
15:00 +38°C° 0 mm 3 m/s 755 mmHg 45%
16:00 +36°C° 0 mm 4 m/s 755 mmHg 53%
17:00 +34°C° 0 mm 4 m/s 755 mmHg 60%
18:00 +32°C° 0 mm 4 m/s 755 mmHg 68%
19:00 +30°C° 0 mm 4 m/s 756 mmHg 70%
20:00 +30°C° 0 mm 5 m/s 756 mmHg 72%
21:00 +29°C° 0 mm 5 m/s 757 mmHg 74%
22:00 +28°C° 0 mm 4 m/s 757 mmHg 77%
23:00 +28°C° 0 mm 4 m/s 757 mmHg 80%
Mostrar mais